sat.trackr.live / text

‹ back to catalog

STARLINK-34359

NORAD 64280 · 2025-120AA

PAYLOAD ACTIVE UNKNOWN

§ Identity

Operator
Country
US
Launch date
2025-06-04
Launch site
AFWTR
Launch vehicle
Mass (kg)
RCS (m²)

Purposes: comms

External: N2YO · Heavens-Above · Gunter

§ Orbital elements

Epoch: 2026-09-20T09:04:18.870816Z

Period
93.85 min
Inclination
53.1581°
Eccentricity
0.0001324
Mean motion
15.34401977 rev/d
Perigee alt
461.8 km
Apogee alt
463.6 km
Semi-major
6,840.8 km
B*
3.7937e-4
RAAN
290.2662°
Arg perigee
94.5767°
Mean anomaly
265.5387°
Rev number
7,375

§ Raw data

STARLINK-343591 64280U 25120AA  26263.37799619  .00012464  00000+0  37937-3 0  99982 64280  53.1581 290.2662 0001324  94.5767 265.5387 15.34401977 73759

JSON: /api/v1/satellites/64280 · /tle

For live sub-satellite position, see the globe view (requires WebGL).

§ Visibility from observer

Set your observer location to see the next 7 days of passes ≥ 10°. The values pass through the URL so the page stays shareable.

No JS? Fill the form by hand. The geolocation button needs JavaScript.